Los Angeles, CA

1:02 PM PDT on April 24, 2017 (GMT -0700)
Los Angeles International

Weather History for KLAX - June, 2013

Change the Weather History Date:

Friday, June 21, 2013

  Actual Average Record
Temperature  
Mean Temperature 69 °F 66 °F  
Max Temperature 75 °F 71 °F 90 °F (1973)
Min Temperature 62 °F 61 °F 56 °F (1975)
Degree Days  
Heating Degree Days 0 0  
Month to date heating degree days 0 24  
Since 1 June heating degree days 0 24  
Since 1 July heating degree days 1136 1418  
Cooling Degree Days 4 2  
Month to date cooling degree days 47 24  
Year to date cooling degree days 128 64  
Since 1 June cooling degree days 47 24  
Growing Degree Days 18 (Base 50)    
Moisture  
Dew Point 59 °F    
Average Humidity 74    
Maximum Humidity 90    
Minimum Humidity 57    
Precipitation  
Precipitation 0.00 in 0.00 in 0.05 in (2002)
Month to date precipitation 0.00 0.07  
Year to date precipitation 2.61 8.80  
Since 1 July precipitation 6.89  
Sea Level Pressure  
Sea Level Pressure 29.87 in    
Wind  
Wind Speed 7 mph (WSW)    
Max Wind Speed 16 mph    
Max Gust Speed 21 mph    
Visibility 10 miles    
Events      
T = Trace of Precipitation, MM = Missing Value Source: NWS Daily Summary

Daily Weather History Graph

Daily Weather History Graph

Search for Another Location

Airport or City:

Trip Planner

Search our weather history database for the weather conditions in past years. The results will help you decide how hot, cold, wet, or windy it might be!

Date:

Astronomy

Jun. 21, 2013 Rise Set
Actual Time 5:43 AM PDT 8:08 PM PDT
Civil Twilight 5:13 AM PDT 8:37 PM PDT
Nautical Twilight 4:37 AM PDT 9:13 PM PDT
Astronomical Twilight 3:58 AM PDT 9:52 PM PDT
Moon 6:26 PM PDT (6/21) 3:59 AM PDT (6/21)
Length of Visible Light 15h 23m
Length of Day
14h 24m
Waxing Gibbous, 96% of the Moon is Illuminated
Jun 21
Waxing Gibbous
Jun 23
Full
Jun 29
Last Quarter
Jul 8
New
Jul 15
First Quarter

Hourly Weather History & Observations

Time (PDT) Temp. Dew Point Humidity Pressure Visibility Wind Dir Wind Speed Gust Speed Precip Events Conditions
12:53 AM 64.9 °F 60.1 °F 84% 29.84 in 9.0 mi Calm Calm - N/A   Clear
1:53 AM 64.0 °F 59.0 °F 84% 29.84 in 9.0 mi Calm Calm - N/A   Clear
2:53 AM 64.0 °F 59.0 °F 84% 29.83 in 9.0 mi East 3.5 mph - N/A   Clear
3:53 AM 64.0 °F 57.9 °F 80% 29.84 in 10.0 mi Calm Calm - N/A   Clear
4:53 AM 63.0 °F 59.0 °F 87% 29.84 in 9.0 mi ENE 3.5 mph - N/A   Clear
5:53 AM 62.1 °F 59.0 °F 90% 29.85 in 9.0 mi Variable 3.5 mph - N/A   Scattered Clouds
6:53 AM 64.0 °F 60.1 °F 87% 29.87 in 8.0 mi East 4.6 mph - N/A   Scattered Clouds
7:53 AM 66.9 °F 59.0 °F 76% 29.89 in 9.0 mi East 5.8 mph - N/A   Scattered Clouds
8:53 AM 70.0 °F 57.9 °F 65% 29.89 in 10.0 mi SE 6.9 mph - N/A   Scattered Clouds
9:53 AM 72.0 °F 55.9 °F 57% 29.90 in 10.0 mi SSW 5.8 mph - N/A   Scattered Clouds
10:53 AM 73.0 °F 59.0 °F 61% 29.91 in 10.0 mi West 9.2 mph - N/A   Scattered Clouds
11:53 AM 73.9 °F 57.0 °F 55% 29.91 in 10.0 mi West 11.5 mph - N/A   Scattered Clouds
12:53 PM 73.9 °F 57.9 °F 57% 29.90 in 10.0 mi West 13.8 mph - N/A   Scattered Clouds
1:53 PM 73.0 °F 57.9 °F 59% 29.89 in 10.0 mi WSW 13.8 mph - N/A   Scattered Clouds
2:53 PM 73.0 °F 59.0 °F 61% 29.88 in 10.0 mi West 12.7 mph - N/A   Scattered Clouds
3:53 PM 72.0 °F 60.1 °F 66% 29.88 in 10.0 mi WSW 11.5 mph - N/A   Scattered Clouds
4:53 PM 72.0 °F 60.1 °F 66% 29.87 in 10.0 mi WSW 12.7 mph - N/A   Scattered Clouds
5:53 PM 71.1 °F 59.0 °F 66% 29.85 in 10.0 mi West 10.4 mph - N/A   Mostly Cloudy
6:53 PM 69.1 °F 59.0 °F 70% 29.85 in 10.0 mi West 9.2 mph - N/A   Mostly Cloudy
7:53 PM 68.0 °F 59.0 °F 73% 29.85 in 10.0 mi West 8.1 mph - N/A   Mostly Cloudy
8:53 PM 68.0 °F 60.1 °F 76% 29.85 in 10.0 mi West 6.9 mph - N/A   Scattered Clouds
9:53 PM 66.9 °F 60.1 °F 79% 29.86 in 10.0 mi SW 4.6 mph - N/A   Scattered Clouds
10:53 PM 66.9 °F 60.1 °F 79% 29.86 in 10.0 mi SW 4.6 mph - N/A   Partly Cloudy
11:53 PM 66.0 °F 62.1 °F 87% 29.86 in 9.0 mi Calm Calm - N/A   Scattered Clouds